星链-1111 (STARLINK-1111 )

导读 | 星芒AI

STARLINK-1111 是 SpaceX Starlink 项目中的一颗低轨通信卫星,属于该系列的第十一组发射任务。该卫星旨在为全球用户提供高速互联网接入,特别是在网络基础设施薄弱的地区。它运行在约 550 公里的轨道高度,配备先进通信设备,支持宽带数据传输。作为 Starlink 卫星群的一部分,STARLINK-1111 有助于构建一个覆盖全球的低延迟卫星互联网系统,提升远程通信和网络连接能力。

基本信息
目录编号:
44924
目录名称:
STARLINK-1111
国际标识:
2020-001L
轨道中心:
EARTH
卫星名称:
星链-1111
卫星全名:
星链-1111 (STARLINK-1111 )
卫星状态:
已陨落 最后检测时间 2024-07-27
发射日期:
2020-01-07 UTC
国别 :
美国 (US)
星等 :
--
轨道信息
数据来源 国际轨道数据
星历时间: 2024-07-28T05:57:28+0800
轨道信息已过期511天
半长轴: 6540.754km
偏心率: 0.0007436
轨道倾角: 53.034°
近地点辐角 237.459°
升交点赤经 54.493°
平近点角 214.989°
近地点: 157.755km
远地点: 167.483km
周期: 87.741分钟
每日圈数: 16.411985
详细信息
固有亮度:
5
最大亮度:
2.5
卫星平台:
Starlink V1.0
覆盖范围:
全球
运营商:
太空探索技术公司
运营商所在国:
美国
制造商(研发单位):
太空探索技术公司
制造商所在国:
美国
使用方式:
暂无
卫星简介
星链(Starlink)计划是由太空探索技术公司(SpaceX)提出的一个巨型低轨卫星互联网星座项目,计划在2019年至2024年间在太空搭建由约1.2万颗卫星组成的“星链”网络,其中1584颗将部署在地球上空550千米处的近地轨道,并从2020年开始工作。该卫星仍在工作。